Regional Weather Roundup
Issued by NWS

Home | Current Version | Previous Version | Graphics & Text | Print | Product List | Glossary On
Versions: 1 2 3 4 5 6 7 8 9 10 11 12 13 14 15 16 17 18 19 20 21 22 23 24 25 26 27 28 29 30 31 32 33 34 35 36 37 38 39 40 41 42 43 44 45 46 47 48 49 50
000
ASUS45 KTFX 012204
RWRMT
MONTANA HOURLY WEATHER ROUNDUP
NATIONAL WEATHER SERVICE GREAT FALLS MT
404 PM MDT WED OCT 1 2014

NOTE: "FAIR" INDICATES FEW OR NO CLOUDS BELOW 12000 FEET WITH NO
SIGNIFICANT WEATHER AND/OR OBSTRUCTIONS TO VISIBILITY.

* THESE STATIONS ARE NOT UNDER NWS QUALITY CONTROL. THEY DO NOT
   REPORT WEATHER SUCH AS PRECIPITATION OR FOG.

MTZ001>007-043-012300-
WEST OF THE DIVIDE
CITY           SKY/WX    TMP DP  RH WIND       PRES   REMARKS
KALISPELL      CLOUDY    55  34  45 W9        30.01S
MISSOULA       CLOUDY    57  32  39 W13G23    30.09R
BUTTE          PTCLDY    52  25  35 W14       30.04F
MULLAN PASS    CLOUDY    37  34  89 CALM      30.10S
* ESSEX        N/A       49  44  83 NW1        N/A
* LINCOLN      N/A       51  29  43 SW8G20     N/A
* LOOKOUT PASS N/A       46  36  68 S1G9       N/A
* POLSON       N/A       54  32  43 W3G9       N/A
* RONAN APT    PTCLDY    55  34  45 SW9        N/A
* SEELEY LAKE  N/A       52  32  47 W8G20      N/A
* THOMP F APT  PTCLDY    47  23  39 NW5G17     N/A
* YAAK HILL    N/A       59  31  35 S2G19      N/A
$$

MTZ008-052>055-012300-
SOUTHWEST MONTANA
CITY           SKY/WX    TMP DP  RH WIND       PRES   REMARKS
BOZEMAN        PTSUNNY   54  34  47 SE5       30.02S
DILLON         CLOUDY    54  27  35 W15       30.04S
W YELLOWSTONE  PTSUNNY   45  23  42 NW7       30.05S
* THREE FORKS  PTCLDY    55  55 100 N/A        N/A
* BOULDER HILL N/A       49  20  32 S10G16     N/A
* MONIDA PASS  N/A       44  24  45 NW22       N/A
* RAYNOLDS PAS N/A       46  44  93 NW11G18    N/A
* WHITEHALL    N/A       60  28  30 W10G17     N/A
* WISE RIVER   N/A       50  24  36 NW20G26    N/A
$$

MTZ009>010-012-014-046-048-049-054-012300-
EAST SLOPES AND CENTRAL MONTANA
CITY           SKY/WX    TMP DP  RH WIND       PRES   REMARKS
CUT BANK       SUNNY     57  32  39 W28G33    29.87S
GREAT FALLS    PTSUNNY   57  32  39 SW23G33   29.89F
HELENA         PTSUNNY   59  28  31 W16G26    29.99S
MALMSTROM AFB  PTCLDY    59  30  33 W14G36    29.91F
* CONRAD       SUNNY     61  32  34 SW16G22    N/A
* DEARBORN     N/A       57  30  36 S22G31     N/A
* EAST GLACIER N/A       47  30  52 W37G47     N/A
* MONARCH      N/A       48  23  37 SW16G25    N/A
* PENDROY      N/A       56  24  29 W20G26     N/A
* ROGERS PASS  N/A       46  28  50 SE17G27    N/A
* SAINT MARY   N/A       51  32  48 S12G25     N/A
* SWEET GRASS  N/A       58  26  29 W17G26     N/A
$$

MTZ011-013-016-021-035-040-045-047-050-051-012300-
NORTH CENTRAL MONTANA
CITY           SKY/WX    TMP DP  RH WIND       PRES   REMARKS
HAVRE          PTCLDY    61  34  36 SW15      29.84F
LEWISTOWN      PTSUNNY   55  34  45 NW5       29.93S
* CHESTER      N/A       60  28  30 W10G18     N/A
* DENTON       N/A       57  31  37 W15G21     N/A
* JUDITH GAP   N/A       51  29  43 W14G23     N/A
* LOMA         N/A       63  32  31 SW11G22    N/A
$$

MTZ017>020-022>027-061-062-012300-
NORTHEAST MONTANA
CITY           SKY/WX    TMP DP  RH WIND       PRES   REMARKS
GLASGOW        HAZE      61  37  41 W18G26    29.82S VSB 2 1/2
GLENDIVE       CLOUDY    55  45  69 NW16G24   29.84S
JORDAN         PTCLDY    61  39  44 W16G24    29.87S
SIDNEY         CLOUDY    57  46  67 NW15      29.82R
WOLF POINT     CLOUDY    61  45  56 W12       29.82S
* BEAVER HILL  N/A       54  44  69 W18G24     N/A
* CIRCLE       N/A       56  46  69 NW6G11     N/A
* LINDSAY DVD  N/A       54  44  69 W16G24     N/A
* NAVAJO       N/A       55  42  62 NW19       N/A
$$

MTZ028>042-056>058-012300-
SOUTHCENTRAL AND SOUTHEAST MONTANA
CITY           SKY/WX    TMP DP  RH WIND       PRES   REMARKS
BAKER          CLOUDY    55  43  64 NW13      29.86S
BILLINGS       PTSUNNY   59  28  31 NW13      29.94S
LIVINGSTON     PTSUNNY   55  34  45 SW18      29.99R
MILES CITY     PTCLDY    63  34  34 NW17G24   29.86S
* LAUREL APT   PTCLDY    55  30  39 W6         N/A
* ROUNDUP APT  PTCLDY    57  30  36 NW7        N/A
* ALZADA       N/A       53  41  64 W8G14      N/A
* HYSHAM       N/A       58  24  27 W11G19     N/A
* LAME DEER    N/A       53  32  45 W14G20     N/A
* REED POINT   N/A       58  32  37 W17G24     N/A
* ROSCOE HILL  N/A       52  20  28 NW11G19    N/A
$$

REGIONAL REPORTS...DAKOTAS
CITY           SKY/WX    TMP DP  RH WIND       PRES   REMARKS
WILLISTON      CLOUDY    57  45  64 NW18G25   29.78R
DICKINSON      CLOUDY    55  46  72 W12       29.79R
BEACH          N/A       54  46  74 W18G25    29.84R
CROSBY         CLOUDY    55  48  77 NW21G28   29.74R
TIOGA          CLOUDY    54  50  86 NW17G28   29.77R
WATFORD CITY   PTSUNNY   55  46  72 NW14G23   29.76R
BISMARCK       CLOUDY    61  48  62 W15G26    29.76R
GRAND FORKS    CLOUDY    64  54  70 SW17G23   29.62R
FARGO          CLOUDY    66  50  56 W16       29.67R
BUFFALO SD     CLOUDY    54  43  67 W21       29.81R
RAPID CITY     CLOUDY    54  45  72 N15       29.89R
$$

REGIONAL REPORTS...WYOMING/IDAHO/WASHINGTON
CITY           SKY/WX    TMP DP  RH WIND       PRES   REMARKS
GILLETTE       CLOUDY    52  37  57 NW14G21   29.94R
SHERIDAN       PTSUNNY   55  36  49 NW14      29.94S
CODY           PTCLDY    52  34  50 CALM      29.98F
YELLOWSTONE LA PTCLDY    39  30  70 W7        30.08S WCI  34
SALMON         PTCLDY    54  30  40 CALM      30.08S
MULLAN PASS    CLOUDY    37  34  89 CALM      30.10S
SAND POINT     CLOUDY    61  41  48 S13       30.04F
SPOKANE        PTSUNNY   63  34  34 SW20G28   30.06F

$$



USA.gov is the U.S. government's official web portal to all federal, state and local government web resources and services.